timestamp,surface_pressure_avg,surface_temp_avg,battery_voltage,lat,long
2024-05-09 00:09:00+00:00,398.9396,3.2,12.41,47.84626,-54.09684
2024-05-09 00:19:01+00:00,394.6363,3.38,12.41,47.84626,-54.09684
2024-05-09 00:29:01+00:00,386.8496,3.5,12.41,47.84626,-54.09684
2024-05-09 00:39:01+00:00,383.1245,3.49,12.41,47.84626,-54.09684
2024-05-09 00:49:01+00:00,384.6978,3.3,12.41,47.84626,-54.09684
2024-05-09 00:59:01+00:00,379.7046,3.29,12.41,47.84626,-54.09684
2024-05-09 01:09:01+00:00,372.1296,3.3,12.41,47.84626,-54.09684
2024-05-09 01:19:00+00:00,374.1696,3.1,12.41,47.84626,-54.09684
2024-05-09 01:29:00+00:00,372.2263,3.04,12.41,47.84626,-54.09684
2024-05-09 01:39:00+00:00,363.103,3.2,12.41,47.84626,-54.09684
2024-05-09 01:49:00+00:00,356.7195,3.3,12.41,47.84626,-54.09684
2024-05-09 01:59:00+00:00,353.8597,3.3,12.41,47.84626,-54.09684
2024-05-09 02:09:00+00:00,348.3313,3.37,12.41,47.84626,-54.09684
2024-05-09 02:19:01+00:00,342.4096,3.4,12.33,47.84626,-54.09684
2024-05-09 02:29:01+00:00,337.2013,3.4,12.33,47.84626,-54.09684
2024-05-09 02:39:01+00:00,323.5598,3.4,12.33,47.84626,-54.09684
2024-05-09 02:49:01+00:00,308.0646,3.4,12.33,47.84626,-54.09684
2024-05-09 02:59:01+00:00,301.0247,3.5,12.33,47.84626,-54.09684
2024-05-09 03:09:01+00:00,292.358,3.56,12.33,47.84626,-54.09684
2024-05-09 03:19:00+00:00,281.4864,3.6,12.41,47.84626,-54.09684
2024-05-09 03:29:00+00:00,269.0114,3.7,12.41,47.84626,-54.09684
2024-05-09 03:39:00+00:00,258.4664,3.8,12.41,47.84626,-54.09684
2024-05-09 03:49:00+00:00,244.5564,3.8,12.41,47.84626,-54.09684
2024-05-09 03:59:00+00:00,233.5731,3.88,12.41,47.84626,-54.09684
2024-05-09 04:09:00+00:00,226.2114,3.82,12.41,47.84626,-54.09684
2024-05-09 04:19:00+00:00,217.6948,3.8,12.33,47.84626,-54.09684
2024-05-09 04:29:00+00:00,208.5815,3.8,12.33,47.84626,-54.09684
2024-05-09 04:39:00+00:00,201.1731,3.9,12.33,47.84626,-54.09684
2024-05-09 04:49:00+00:00,195.3615,4.0,12.33,47.84626,-54.09684
2024-05-09 04:59:00+00:00,185.8498,4.12,12.33,47.84626,-54.09684
2024-05-09 05:09:00+00:00,179.2498,4.26,12.33,47.84626,-54.09684
2024-05-09 05:19:00+00:00,178.8932,4.3,12.33,47.84626,-54.09684
2024-05-09 05:29:00+00:00,179.8348,4.3,12.33,47.84626,-54.09684
2024-05-09 05:39:00+00:00,177.3748,4.3,12.33,47.84626,-54.09684
2024-05-09 05:49:00+00:00,174.1831,4.3,12.33,47.84626,-54.09684
2024-05-09 05:59:00+00:00,173.6381,4.3,12.33,47.84626,-54.09684
2024-05-09 06:09:00+00:00,173.0998,4.3,12.33,47.84626,-54.09684
2024-05-09 06:19:00+00:00,175.7698,4.29,12.33,47.84626,-54.09684
2024-05-09 06:29:00+00:00,178.8232,4.22,12.33,47.84626,-54.09684
2024-05-09 06:39:00+00:00,180.3215,4.2,12.33,47.84626,-54.09684
2024-05-09 06:49:00+00:00,185.6364,4.2,12.33,47.84626,-54.09684
2024-05-09 06:59:00+00:00,190.1631,4.2,12.33,47.84626,-54.09684
2024-05-09 07:09:00+00:00,192.4749,4.17,12.33,47.84626,-54.09684
2024-05-09 07:19:00+00:00,195.1915,4.1,12.33,47.84626,-54.09684
2024-05-09 07:29:00+00:00,196.6415,4.1,12.33,47.84626,-54.09684
2024-05-09 07:39:00+00:00,203.1298,4.06,12.33,47.84626,-54.09684
2024-05-09 07:49:00+00:00,208.0164,4.1,12.33,47.84626,-54.09684
2024-05-09 07:59:00+00:00,206.9231,4.1,12.33,47.84626,-54.09684
2024-05-09 08:09:00+00:00,207.7264,4.1,12.33,47.84626,-54.09684
2024-05-09 08:19:00+00:00,213.7415,4.1,12.33,47.84626,-54.09684
2024-05-09 08:29:00+00:00,215.3848,4.09,12.33,47.84626,-54.09684
2024-05-09 08:39:00+00:00,214.7564,3.9,12.33,47.84626,-54.09684
2024-05-09 08:49:00+00:00,220.2131,3.8,12.33,47.84626,-54.09684
2024-05-09 08:59:00+00:00,231.6814,3.55,12.33,47.84626,-54.09684
2024-05-09 09:09:00+00:00,237.9364,3.2,12.33,47.84626,-54.09684
2024-05-09 09:19:00+00:00,244.8665,3.1,12.41,47.84626,-54.09684
2024-05-09 09:29:00+00:00,254.5997,3.0,12.41,47.84626,-54.09684
2024-05-09 09:39:00+00:00,259.7481,3.0,12.41,47.84626,-54.09684
2024-05-09 09:49:00+00:00,264.2797,3.0,12.41,47.84626,-54.09684
2024-05-09 09:59:00+00:00,268.6264,3.0,12.41,47.84626,-54.09684
2024-05-09 10:09:00+00:00,273.4964,3.0,12.41,47.84626,-54.09684
2024-05-09 10:19:00+00:00,281.2247,3.0,12.81,47.84626,-54.09684
2024-05-09 10:29:00+00:00,295.653,2.9,12.81,47.84626,-54.09684
2024-05-09 10:39:00+00:00,304.9464,2.9,12.81,47.84626,-54.09684
2024-05-09 10:49:00+00:00,312.3796,2.89,12.81,47.84626,-54.09684
2024-05-09 10:59:00+00:00,323.3096,2.85,12.81,47.84626,-54.09684
2024-05-09 11:09:00+00:00,337.5247,2.85,12.81,47.84626,-54.09684
2024-05-09 11:19:00+00:00,343.6497,2.9,12.97,47.84626,-54.09684
2024-05-09 11:29:00+00:00,343.9313,2.98,12.97,47.84626,-54.09684
2024-05-09 11:39:00+00:00,343.9212,3.0,12.97,47.84626,-54.09684
2024-05-09 11:49:00+00:00,345.1279,3.0,12.97,47.84626,-54.09684
2024-05-09 11:59:00+00:00,347.2596,3.0,12.97,47.84626,-54.09684
2024-05-09 12:09:00+00:00,349.7613,3.0,12.97,47.84626,-54.09684
2024-05-09 12:19:00+00:00,350.2064,3.0,12.73,47.84626,-54.09684
2024-05-09 12:29:00+00:00,352.19300000000015,3.0,12.73,47.84626,-54.09684
2024-05-09 12:39:00+00:00,355.3763,3.0,12.73,47.84626,-54.09684
2024-05-09 12:49:00+00:00,357.3879,2.98,12.73,47.84626,-54.09684
2024-05-09 12:59:00+00:00,360.2847,2.98,12.73,47.84626,-54.09684
2024-05-09 13:09:00+00:00,360.1262,2.99,12.73,47.84626,-54.09684
2024-05-09 13:19:00+00:00,356.1613,2.99,12.65,47.84626,-54.09684
2024-05-09 13:29:00+00:00,344.3063,3.0,12.65,47.84626,-54.09684
2024-05-09 13:39:00+00:00,338.1946,3.0,12.65,47.84626,-54.09684
2024-05-09 13:49:00+00:00,336.7646,3.0,12.65,47.84626,-54.09684
2024-05-09 13:59:00+00:00,325.718,3.01,12.65,47.84626,-54.09684
2024-05-09 14:09:00+00:00,320.8963,3.03,12.65,47.84626,-54.09684
2024-05-09 14:19:00+00:00,317.0579,3.06,12.65,47.84626,-54.09684
2024-05-09 14:29:00+00:00,316.473,3.1,12.65,47.84626,-54.09684
2024-05-09 14:39:00+00:00,314.2847,3.27,12.65,47.84626,-54.09684
2024-05-09 14:49:00+00:00,309.3497,3.39,12.65,47.84626,-54.09684
2024-05-09 14:59:00+00:00,297.0297,3.76,12.65,47.84626,-54.09684
2024-05-09 15:09:00+00:00,282.8214,4.0,12.65,47.84626,-54.09684
2024-05-09 15:19:00+00:00,275.5314,4.1,12.65,47.84626,-54.09684
2024-05-09 15:29:00+00:00,268.4614,4.1,12.65,47.84626,-54.09684
2024-05-09 15:39:00+00:00,251.7848,4.2,12.65,47.84626,-54.09684
2024-05-09 15:49:00+00:00,241.0081,4.3,12.65,47.84626,-54.09684
2024-05-09 15:59:00+00:00,237.0347,4.33,12.65,47.84626,-54.09684
2024-05-09 16:09:00+00:00,229.5764,4.19,12.65,47.84626,-54.09684
2024-05-09 20:19:00+00:00,220.1931,3.3,12.89,47.84626,-54.09684
2024-05-09 20:29:00+00:00,222.8582,3.2,12.89,47.84626,-54.09684
2024-05-09 20:39:00+00:00,227.8715,3.14,12.89,47.84626,-54.09684
2024-05-09 20:49:00+00:00,236.2281,3.1,12.89,47.84626,-54.09684
2024-05-09 20:59:00+00:00,241.3548,3.08,12.89,47.84626,-54.09684
2024-05-09 21:09:00+00:00,246.2247,3.0,12.89,47.84626,-54.09684
2024-05-09 21:19:00+00:00,252.9248,3.0,12.65,47.84626,-54.09684
2024-05-09 21:29:00+00:00,259.0431,3.0,12.65,47.84626,-54.09684
2024-05-09 21:39:00+00:00,266.2097,3.06,12.65,47.84626,-54.09684
2024-05-09 21:49:00+00:00,273.7364,3.1,12.65,47.84626,-54.09684
2024-05-09 21:59:00+00:00,279.7747,3.1,12.65,47.84626,-54.09684
2024-05-09 22:09:00+00:00,288.6514,3.03,12.65,47.84626,-54.09684
2024-05-09 22:19:00+00:00,298.7513,3.05,12.49,47.84626,-54.09684
2024-05-09 22:29:00+00:00,309.2014,3.08,12.49,47.84626,-54.09684
2024-05-09 22:39:00+00:00,318.5113,3.1,12.49,47.84626,-54.09684
2024-05-09 22:49:00+00:00,329.2629,3.2,12.49,47.84626,-54.09684
2024-05-09 22:59:00+00:00,339.6681,3.22,12.49,47.84626,-54.09684
2024-05-09 23:09:00+00:00,348.5347,3.26,12.49,47.84626,-54.09684
2024-05-09 23:19:01+00:00,354.4163,3.28,12.41,47.84626,-54.09684
2024-05-09 23:29:01+00:00,361.8779,3.3,12.41,47.84626,-54.09684
2024-05-09 23:39:01+00:00,368.7963,3.29,12.41,47.84626,-54.09684
2024-05-09 23:49:01+00:00,373.9629,3.29,12.41,47.84626,-54.09684
2024-05-09 23:59:01+00:00,373.0179,3.26,12.41,47.84626,-54.09684
